NIUENFTF

Guest
Details From NIUE - Niue
To NFTF - Fua Amotu Intl
Flight Number -
Tags generated
Created
Modified
Stats Distance 323 nm / 599 km
Max Altitude 4,900 ft / 1,494 m
Waypoints 4
Social Downloads 1
Likes 0
Share VATSIM

Download

Looking for another format? Having issues loading an existing format? Contact us
Advertisement - Login to hide

Notes

Basic altitude profile: - Ascent Rate: 2500ft/min - Ascent Speed: 250kts - Cruise Altitude: 35000ft - Cruise Speed: 420kts - Descent Rate: 1500ft/min - Descent Speed: 250kts Options: - Use NATs: yes - Use PACOTS: yes - Use low airways: yes - Use high airways: yes

Route

NIUE NU A584 TBU NFTF

ID Type Via Altitude Latitude Longitude Leg Dist Tot Dist Heading (true) Name
O NIUE APT - 0 ft / 0 m -19.07901˚ -169.92577˚ - 0 nm - Niue
NU NDB - 200 ft / 61 m -19.07364˚ -169.91714˚ 0 nm 0 nm 57° / 57° NIUE NDB
TBU VOR A584 (AWY-LO) 4,900 ft / 1,494 m -21.24417˚ -175.14861˚ 322 nm 323 nm 245° / 247° FUA AMOTU VOR-DME
O NFTF APT - 0 ft / 0 m -21.24249˚ -175.14457˚ 0 nm 323 nm 66° / 66° Fua Amotu Intl

Altitude Profile

Advertisement - Login to hide

Weather


0- 5 10 15 20 25 30 35+ Temperature / ° C

Clouds and Precipitation
Forecast for 2018-05-21 12:00 UTC. Updated 3 hours ago

Ground ~20,000 ft ~40,000 ft Winds

NIUE

Details ICAO NIUE (IUE)
Name Niue
Region Niue
Timezone Pacific/Niue (UTC-11.0)
Stats Elevation 209 ft / 64 m (AMSL)
Location -19.079010° -169.925766°
Runways 1
Magnetic Variation 13.094° E

METAR

NIUE 211300Z AUTO 11004KT //// ////// 23/22 Q1014

Decode

TAF

TAF NIUE 211108Z 2112/2212 10005KT 9999 SCT018

Decode

Departure Runways

ID Width Length Bearing (true) Bearing (mag) Surface Threshold Offset Overrun Length
10 148 ft / 45 m 7,644 ft / 2,330 m 109.90° 96.81° Asphalt 0 ft / 0 m 0 ft / 0 m
28 148 ft / 45 m 7,644 ft / 2,330 m 289.90° 276.81° Asphalt 0 ft / 0 m 0 ft / 0 m

NFTF

Details ICAO NFTF (TBU)
Name Fua Amotu Intl
Region Fiji and Tonga
Timezone Pacific/Tongatapu (UTC+13.0)
Stats Elevation 126 ft / 38 m (AMSL)
Location -21.242493° -175.144569°
Runways 2
Magnetic Variation 13.684° E

METAR

NFTF 211300Z 00000KT 9999 MIBR FEW016 22/21 Q1015 RMK GRASS DEW

Decode

TAF

TAF NFTF 211106Z 2112/2212 VRB03KT 9999 FEW016 FM211600 VRB03KT 0600 FG FEW018 FM1930 08007KT 9999 SCT018

Decode

Destination Runways

ID Width Length Bearing (true) Bearing (mag) Surface Threshold Offset Overrun Length
11 148 ft / 45 m 8,967 ft / 2,733 m 122.10° 108.42° Asphalt 0 ft / 0 m 194 ft / 59 m
17 194 ft / 59 m 4,960 ft / 1,512 m 182.40° 168.72° Unknown 0 ft / 0 m 0 ft / 0 m
29 148 ft / 45 m 8,967 ft / 2,733 m 302.09° 288.41° Asphalt 0 ft / 0 m 194 ft / 59 m
35 194 ft / 59 m 4,960 ft / 1,512 m 2.40° 348.72° Unknown 0 ft / 0 m 0 ft / 0 m

Popular Alternatives